Pagrindinis puslapis
METAR-TAF:

METAR-TAF

Oro uostai :

Brevig Mission, Aliaska, Jungtinės Amerikos Valstijos

platuma: 65-19-53N, ilguma: 166-27-57W, Aukštis: 11 m

Dabartinis oras

Ataskaita buvo paskelbta 53 minutes, ne 01:56 UTC
Vėjas 9 kt iš Pietų
Temperatūra -2°C
Drėgmė 86%
Slėgis 1021 hPa
Matomumas: 16.1 km
Giedras dangus

METAR: PFKT 010156Z AUTO 19009KT 10SM CLR M02/M04 A3016 RMK AO2 SLP215 T10171044 FZRANO

Laikas: 18:49 (02:49 UTC)


TAF: trūkstamas

Orai ataskaitas ir orų prognozės (METAR, TAF).

turimą stotys yra geltonos ir raudonos taškus žemėlapyje.

Perkelti pele per norėdami pamatyti stoties vardą.

Tada spustelėkite, norėdami matyti oro stebėjimo ir prognozės.

Norėdami pakeisti žemėlapį: spustelėkite ant žalios mygtukų su juodo kryžiaus žemyn,; žalią mygtuką su brūkšneliu, jei norite nutolinti; arba žalių rodyklių gretimoms žemėlapius.


METAR-TAF: